Hourly Data Report for December 30, 2005

TORONTO CITY
ONTARIO

43°40'00.000" N
79°24'00.000" W
112.50 m
6158355
71508
XTO

Download Data

Hourly Data (December 2005)
Hourly Data Report for December 30, 2005
TIME
LST
Temp Definition
°C
Dew Point Definition
°C
Rel Hum Definition
%
Precip. Amount Definition
mm

Wind Dir Definition
10's deg

Wind Spd Definition
km/h
Visibility Definition
km
Stn Press Definition
kPa
Hmdx Definition


Wind Chill Definition


Weather Definition


00:00 -1.3 -3.6 84   LegendMM LegendMM   99.43     LegendNANA
01:00 -1.7 -4.2 83   LegendMM LegendMM   99.50     LegendNANA
02:00 -2.0 -4.6 82   LegendMM LegendMM   99.58     LegendNANA
03:00 -2.0 -4.6 82   LegendMM LegendMM   99.64     LegendNANA
04:00 -2.4 -5.0 82   LegendMM LegendMM   99.68     LegendNANA
05:00 -2.9 -5.6 82   LegendMM LegendMM   99.74     LegendNANA
06:00 -3.5 -6.1 82   LegendMM LegendMM   99.84     LegendNANA
07:00 -3.9 -6.8 80   LegendMM LegendMM   99.89     LegendNANA
08:00 -3.3 -6.2 80   LegendMM LegendMM   99.95     LegendNANA
09:00 -3.2 -6.0 81   LegendMM LegendMM   100.03     LegendNANA
10:00 -2.9 -7.2 72   LegendMM LegendMM   100.02     LegendNANA
11:00 -2.9 -7.0 73   LegendMM LegendMM   100.04     LegendNANA
12:00 -2.8 -7.3 71   LegendMM LegendMM   100.01     LegendNANA
13:00 -1.6 -6.4 70   LegendMM LegendMM   99.99     LegendNANA
14:00 -2.4 -7.0 71   LegendMM LegendMM   99.94     LegendNANA
15:00 -2.3 -7.3 69   LegendMM LegendMM   99.96     LegendNANA
16:00 -2.5 -7.7 67   LegendMM LegendMM   99.97     LegendNANA
17:00 -2.5 -7.6 68   LegendMM LegendMM   99.98     LegendNANA
18:00 -3.0 -7.7 70   LegendMM LegendMM   99.97     LegendNANA
19:00 -3.9 -7.6 75   LegendMM LegendMM   99.97     LegendNANA
20:00 -5.1 -8.1 79   LegendMM LegendMM   99.90     LegendNANA
21:00 -4.6 -8.0 77   LegendMM LegendMM   99.89     LegendNANA
22:00 -3.8 -6.2 83   LegendMM LegendMM   99.89     LegendNANA
23:00 -3.3 -5.2 87   LegendMM LegendMM   99.85     LegendNANA

Notes on Data Quality.

Legend

  • E = Estimated
  • M = Missing
  • NA = Not Available*
  • [empty] = Indicates an unobserved value
Date modified: